Havre City County Airport Havre US
ICAO: KHVR
IATA: HVR
Category: Medium
Scheduled Services: No

Elevation: 2591 ft
TransAlt. 18000 ft.

Airport Communications:
ASOS:135.225
GREAT FALLS RDO:123.65
CTAF/UNICOM:122.8

KHVR Zoom In..

If you have problems with the map follow the link
https://www.worldairports.se/pages/airport.php?
ICAO=KHVR

Runways:

(A) RW 03 length 3699 ft width 60 ft
---- / hdg 32

(B) RW 08 length 5205 ft width 100 ft
---- / hdg 77

(C) RW 21 length 3699 ft width 60 ft
---- / hdg 212

(D) RW 26 length 5205 ft width 100 ft
---- / hdg 257

Location; KHVR
Day. 23 / Time. 17.53 Zulu
* Altimeter: 30.02
* Temperature: 06° c. 42.8°f.
* Wind from: 000° Speed 00 kn.
Dewpoint: -02° c.
Visibility: 10 Statute Miles.
Clouds: Clear (automated report).

KHVR 231753Z AUTO 00000KT 10SM CLR 06/M02 A3002 RMK AO2 SLP183 T00561017 10061 21056 58009


Wind - Calm.

 
 
jpsmedia.com for Web Design worldairports.se 2018   terms of use